Flag for Honduras Weather past 2 weeks in Tegucigalpa, Honduras

Now
63 °F

Scattered clouds.


Feels Like: 63 °F
Forecast: 66 / 90 °F
Wind: No wind

Location: Tegucigalpa Airport

Current Time: Aug 30, 2015 at 6:56:33 AM

Latest Report: Aug 30, 2015 at 6:00 AM


Visibility: N/A

Pressure: 30.04 "Hg (26.53 "Hg at 1054m altitude)

Humidity: 100%

Dew point: 63 °F

Location of TegucigalpaLocation

Historic Weather in Tegucigalpa — Graph

°F

Tegucigalpa temperature yesterday

Maximum temperature yesterday: 88 °F (at 1:00 PM)
Minimum temperature yesterday: 66 °F (at 5:00 AM)
Average temperature yesterday: 77 °F

Past Weeks' High & Low Weather Summary

 TemperatureHumidityPressure
High91 °F (Aug 24, 1:00 PM)100% (Aug 17, 6:00 AM)30.15 "Hg (Aug 17, 6:00 AM)
Low36 °F (Aug 25, 11:00 PM)28% (Aug 25, 2:00 PM)29.95 "Hg (Aug 28, 4:00 PM)
Average76 °F67%30.07 "Hg
* Reported Aug 15 6:00 AM — Aug 30 5:00 AM, Tegucigalpa, Weather by CustomWeather, © 2015

Note: Actual official high and low records may vary slightly from our data, if they occured in-between our weather recording intervals... More about our weather records

Advertising

Tegucigalpa weather history for previous 24 hours

 ConditionsComfort  
Time TempWeatherWind HumidityBarometerVisibility
5:00 AM
Sun, Aug 30
64 °FPartly cloudy.No wind94%30.04 "HgN/A
4:00 AM66 °FPartly cloudy.No wind94%30.04 "HgN/A
3:00 AM66 °FPassing clouds.No wind88%30.04 "HgN/A
2:00 AM68 °FPassing clouds.No wind83%30.04 "HgN/A
1:00 AM68 °FPassing clouds.2 mph83%30.07 "HgN/A
12:00 AM72 °FPassing clouds.2 mph73%30.09 "HgN/A
11:00 PM
Sat, Aug 29
73 °FPassing clouds.2 mph74%30.09 "HgN/A
10:00 PM73 °FPassing clouds.5 mph65%30.07 "HgN/A
9:00 PM75 °FPassing clouds.3 mph65%30.07 "HgN/A
8:00 PM77 °FPassing clouds.5 mph61%30.04 "HgN/A
7:00 PM79 °FPassing clouds.2 mph58%30.01 "HgN/A
6:00 PM81 °FPartly sunny.5 mph58%29.98 "HgN/A
5:00 PM82 °FBroken clouds.5 mph51%29.98 "HgN/A
4:00 PM84 °FBroken clouds.9 mph45%29.98 "HgN/A
3:00 PM86 °FBroken clouds.7 mph43%29.98 "HgN/A
2:00 PM88 °FBroken clouds.9 mph43%30.01 "HgN/A
1:00 PM88 °FBroken clouds.9 mph46%30.04 "HgN/A
12:00 PM84 °FBroken clouds.7 mph48%30.07 "HgN/A
11:00 AM81 °FPartly sunny.5 mph58%30.09 "HgN/A
10:00 AM79 °FBroken clouds.5 mph65%30.09 "HgN/A
9:00 AM75 °FBroken clouds.7 mph78%30.12 "HgN/A
8:00 AM72 °FBroken clouds.7 mph88%30.12 "HgN/A
7:00 AM70 °FPartly sunny.2 mph94%30.09 "Hg4 mi
6:00 AM68 °FPartly sunny.2 mph100%30.07 "Hg4 mi
Weather by CustomWeather, © 2015

See weather overviewHow to use our weather pages